• In Deutschland
  • Länderverzeichnis
  • Für 7 Tage
  • Wassertemperatur
  • Satellitenkarten
  • Wetterkarte
  • Widgets
  • user-avatar
    Anmelden

    Stündliche Wetter Bad Wildbad

    Heute, 13 Dezember, Mittwoch

    Zeit Temperatur Niederschläge Wind Luftdruck Luftfeuchtigkeit
    00:00 -4°C° 0 mm 2 m/S 708 mmHg 90%
    01:00 -4°C° 0 mm 2 m/S 708 mmHg 90%
    02:00 -4°C° 0 mm 2 m/S 708 mmHg 89%
    03:00 -4°C° 0 mm 2 m/S 708 mmHg 89%
    04:00 -5°C° 0 mm 3 m/S 707 mmHg 88%
    05:00 -5°C° 0 mm 3 m/S 707 mmHg 86%
    06:00 -5°C° 0 mm 3 m/S 707 mmHg 84%
    07:00 -5°C° 0 mm 3 m/S 707 mmHg 84%
    08:00 -4°C° 0 mm 3 m/S 706 mmHg 79%
    09:00 -3°C° 0 mm 4 m/S 706 mmHg 75%
    10:00 -2°C° 0 mm 4 m/S 706 mmHg 71%
    11:00 -1°C° 0 mm 4 m/S 705 mmHg 68%
    12:00 0°C° 0 mm 5 m/S 704 mmHg 65%
    13:00 0°C° 0 mm 5 m/S 703 mmHg 64%
    14:00 0°C° 0,6 mm 5 m/S 702 mmHg 67%
    15:00 0°C° 0,6 mm 5 m/S 701 mmHg 70%
    16:00 -2°C° 0,6 mm 6 m/S 700 mmHg 73%
    17:00 -1°C° 0,5 mm 6 m/S 700 mmHg 75%
    18:00 -1°C° 0,5 mm 6 m/S 699 mmHg 77%
    19:00 0°C° 0,5 mm 7 m/S 699 mmHg 79%
    20:00 0°C° 0,3 mm 7 m/S 697 mmHg 80%
    21:00 0°C° 0,3 mm 7 m/S 696 mmHg 80%
    22:00 0°C° 0,3 mm 7 m/S 695 mmHg 81%
    23:00 +1°C° 0,7 mm 8 m/S 694 mmHg 81%

    Morgen, 14 Dezember, Donnerstag

    Zeit Temperatur Niederschläge Wind Luftdruck Luftfeuchtigkeit
    00:00 +2°C° 0,7 mm 8 m/S 694 mmHg 81%
    01:00 +2°C° 0,7 mm 9 m/S 693 mmHg 82%
    02:00 +2°C° 0,7 mm 8 m/S 694 mmHg 81%
    03:00 +1°C° 0,7 mm 8 m/S 694 mmHg 81%
    04:00 +2°C° 0,7 mm 7 m/S 694 mmHg 81%
    05:00 0°C° 0,6 mm 8 m/S 695 mmHg 78%
    06:00 0°C° 0,6 mm 9 m/S 695 mmHg 76%
    07:00 -1°C° 0,6 mm 9 m/S 696 mmHg 74%
    08:00 -1°C° 0,1 mm 9 m/S 697 mmHg 74%
    09:00 -1°C° 0,1 mm 8 m/S 698 mmHg 74%
    10:00 -2°C° 0,1 mm 7 m/S 699 mmHg 74%
    11:00 -1°C° 0 mm 7 m/S 698 mmHg 73%
    12:00 -1°C° 0 mm 7 m/S 698 mmHg 71%
    13:00 0°C° 0 mm 8 m/S 698 mmHg 70%
    14:00 0°C° 0,1 mm 7 m/S 698 mmHg 71%
    15:00 -1°C° 0,1 mm 6 m/S 697 mmHg 73%
    16:00 -1°C° 0,1 mm 6 m/S 696 mmHg 74%
    17:00 -1°C° 0,1 mm 6 m/S 695 mmHg 76%
    18:00 0°C° 0,1 mm 5 m/S 695 mmHg 78%
    19:00 0°C° 0,1 mm 5 m/S 694 mmHg 80%
    20:00 0°C° 0,3 mm 5 m/S 693 mmHg 81%
    21:00 0°C° 0,3 mm 5 m/S 693 mmHg 83%
    22:00 0°C° 0,3 mm 5 m/S 692 mmHg 85%
    23:00 0°C° 0,7 mm 4 m/S 692 mmHg 86%

    übermorgen, 15 Dezember, Freitag

    Zeit Temperatur Niederschläge Wind Luftdruck Luftfeuchtigkeit
    00:00 0°C° 0,7 mm 4 m/S 692 mmHg 86%
    01:00 0°C° 0,7 mm 4 m/S 692 mmHg 87%
    02:00 -1°C° 0,3 mm 4 m/S 693 mmHg 86%
    03:00 -1°C° 0,3 mm 4 m/S 694 mmHg 85%
    04:00 -1°C° 0,3 mm 5 m/S 695 mmHg 84%
    05:00 -2°C° 0 mm 5 m/S 695 mmHg 84%
    06:00 -2°C° 0 mm 4 m/S 695 mmHg 85%
    07:00 -3°C° 0 mm 4 m/S 696 mmHg 85%
    08:00 -2°C° 0,2 mm 4 m/S 696 mmHg 84%
    09:00 -2°C° 0,2 mm 5 m/S 696 mmHg 82%
    10:00 -1°C° 0,2 mm 5 m/S 696 mmHg 80%
    11:00 -1°C° 0,1 mm 5 m/S 696 mmHg 79%
    12:00 -1°C° 0,1 mm 6 m/S 696 mmHg 78%
    13:00 -1°C° 0,1 mm 6 m/S 696 mmHg 77%
    14:00 0°C° 0,1 mm 5 m/S 696 mmHg 79%
    15:00 0°C° 0,1 mm 5 m/S 696 mmHg 81%
    16:00 -1°C° 0,1 mm 4 m/S 697 mmHg 83%
    17:00 0°C° 0,1 mm 3 m/S 697 mmHg 85%
    18:00 0°C° 0,1 mm 3 m/S 697 mmHg 87%
    19:00 -1°C° 0,1 mm 3 m/S 698 mmHg 89%
    20:00 -1°C° 0 mm 3 m/S 698 mmHg 89%
    21:00 -1°C° 0 mm 2 m/S 698 mmHg 89%
    22:00 -1°C° 0 mm 2 m/S 698 mmHg 89%
    23:00 -2°C° 0,2 mm 2 m/S 699 mmHg 90%

    16 Dezember, Samstag

    Zeit Temperatur Niederschläge Wind Luftdruck Luftfeuchtigkeit
    00:00 -2°C° 0,2 mm 2 m/S 699 mmHg 91%
    01:00 0°C° 0,2 mm 1 m/S 699 mmHg 91%
    02:00 0°C° 0,1 mm 1 m/S 700 mmHg 92%
    03:00 0°C° 0,1 mm 1 m/S 700 mmHg 92%
    04:00 0°C° 0,1 mm 1 m/S 700 mmHg 93%
    05:00 0°C° 0,1 mm 1 m/S 701 mmHg 93%
    06:00 0°C° 0,1 mm 1 m/S 701 mmHg 94%
    07:00 0°C° 0,1 mm 1 m/S 702 mmHg 94%
    08:00 -2°C° 0 mm 2 m/S 702 mmHg 93%
    09:00 -2°C° 0 mm 2 m/S 703 mmHg 92%
    10:00 -2°C° 0 mm 2 m/S 704 mmHg 90%
    11:00 -1°C° 0 mm 2 m/S 704 mmHg 88%
    12:00 -1°C° 0 mm 3 m/S 705 mmHg 86%
    13:00 0°C° 0 mm 3 m/S 705 mmHg 83%
    14:00 -1°C° 0,2 mm 3 m/S 705 mmHg 85%
    15:00 -1°C° 0,2 mm 3 m/S 706 mmHg 87%
    16:00 -1°C° 0,2 mm 2 m/S 706 mmHg 89%
    17:00 -2°C° 0,3 mm 2 m/S 707 mmHg 90%
    18:00 -2°C° 0,3 mm 2 m/S 707 mmHg 91%
    19:00 -2°C° 0,3 mm 2 m/S 708 mmHg 92%
    20:00 -2°C° 0,1 mm 2 m/S 708 mmHg 92%
    21:00 -3°C° 0,1 mm 2 m/S 709 mmHg 92%
    22:00 -3°C° 0,1 mm 2 m/S 709 mmHg 92%
    23:00 -3°C° 0 mm 2 m/S 710 mmHg 92%

    17 Dezember, Sonntag

    Zeit Temperatur Niederschläge Wind Luftdruck Luftfeuchtigkeit
    00:00 -4°C° 0 mm 2 m/S 710 mmHg 93%
    01:00 -4°C° 0 mm 2 m/S 710 mmHg 93%
    02:00 -4°C° 0 mm 2 m/S 710 mmHg 93%
    03:00 -4°C° 0 mm 2 m/S 711 mmHg 93%
    04:00 -4°C° 0 mm 2 m/S 711 mmHg 93%
    05:00 -4°C° 0 mm 2 m/S 712 mmHg 92%
    06:00 -5°C° 0 mm 3 m/S 712 mmHg 92%
    07:00 -5°C° 0 mm 3 m/S 712 mmHg 91%
    08:00 -5°C° 0,1 mm 3 m/S 713 mmHg 90%
    09:00 -4°C° 0,1 mm 3 m/S 714 mmHg 89%
    10:00 -4°C° 0,1 mm 3 m/S 714 mmHg 88%
    11:00 -2°C° 0,1 mm 3 m/S 714 mmHg 87%
    12:00 -2°C° 0,1 mm 3 m/S 714 mmHg 85%
    13:00 -2°C° 0,1 mm 4 m/S 714 mmHg 83%
    14:00 -2°C° 0 mm 3 m/S 715 mmHg 85%
    15:00 -2°C° 0 mm 3 m/S 715 mmHg 86%
    16:00 -3°C° 0 mm 2 m/S 715 mmHg 87%
    17:00 -3°C° 0 mm 2 m/S 715 mmHg 88%
    18:00 -4°C° 0 mm 2 m/S 715 mmHg 89%
    19:00 -4°C° 0 mm 2 m/S 716 mmHg 90%
    20:00 -4°C° 0 mm 2 m/S 716 mmHg 89%
    21:00 -4°C° 0 mm 2 m/S 716 mmHg 88%
    22:00 -4°C° 0 mm 2 m/S 717 mmHg 88%
    23:00 -4°C° 0 mm 2 m/S 717 mmHg 88%

    18 Dezember, Montag

    Zeit Temperatur Niederschläge Wind Luftdruck Luftfeuchtigkeit
    00:00 -4°C° 0 mm 2 m/S 717 mmHg 88%
    01:00 -4°C° 0 mm 2 m/S 717 mmHg 88%
    02:00 -4°C° 0 mm 2 m/S 717 mmHg 87%
    03:00 -4°C° 0 mm 2 m/S 717 mmHg 87%
    04:00 -5°C° 0 mm 3 m/S 717 mmHg 87%
    05:00 -5°C° 0 mm 3 m/S 717 mmHg 86%
    06:00 -4°C° 0 mm 3 m/S 717 mmHg 86%
    07:00 -4°C° 0 mm 4 m/S 717 mmHg 85%
    08:00 -4°C° 0,1 mm 4 m/S 716 mmHg 85%
    09:00 -4°C° 0,1 mm 5 m/S 716 mmHg 84%
    10:00 -4°C° 0,1 mm 5 m/S 716 mmHg 83%
    11:00 -3°C° 0,6 mm 6 m/S 716 mmHg 84%
    12:00 -3°C° 0,6 mm 6 m/S 715 mmHg 84%
    13:00 -3°C° 0,6 mm 7 m/S 714 mmHg 85%
    14:00 -2°C° 1,3 mm 6 m/S 714 mmHg 86%
    15:00 -2°C° 1,3 mm 6 m/S 714 mmHg 88%
    16:00 -2°C° 1,3 mm 6 m/S 713 mmHg 90%
    17:00 -1°C° 0,8 mm 5 m/S 713 mmHg 91%
    18:00 -1°C° 0,8 mm 5 m/S 713 mmHg 93%
    19:00 -1°C° 0,8 mm 4 m/S 714 mmHg 94%
    20:00 0°C° 0,2 mm 3 m/S 714 mmHg 95%
    21:00 0°C° 0,2 mm 3 m/S 714 mmHg 96%
    22:00 +1°C° 0,2 mm 2 m/S 715 mmHg 97%
    23:00 +1°C° 0,1 mm 2 m/S 715 mmHg 97%
    Mehr zeigen